Newark, NJ

6:22 PM EDT on October 13, 2019 (GMT -0400)
Newark International

Weather History for KEWR - May, 2019

Change the Weather History Date:

Saturday, May 11, 2019

  Actual Average Record
Temperature  
Mean Temperature 64 °F 61 °F  
Max Temperature 71 °F 71 °F 93 °F (1993)
Min Temperature 57 °F 52 °F 36 °F (1966)
Degree Days  
Heating Degree Days 1 5  
Month to date heating degree days 49 70  
Since 1 July heating degree days 4643 4790  
Cooling Degree Days 0 1  
Month to date cooling degree days 2 11  
Year to date cooling degree days 17 23  
Growing Degree Days 14 (Base 50)    
Moisture  
Dew Point 46 °F    
Average Humidity 56    
Maximum Humidity 84    
Minimum Humidity 27    
Precipitation  
Precipitation 0.03 in 0.13 in 2.30 in (1981)
Month to date precipitation 2.00 1.37  
Year to date precipitation 17.65 16.17  
Snow  
Snow 0.00 in 0.00 in 0.00 in (2002)
Month to date snowfall 0.0 0.0  
Since 1 July snowfall 22.0 28.5  
Snow Depth 0.00 in    
Sea Level Pressure  
Sea Level Pressure 29.99 in    
Wind  
Wind Speed 9 mph (NW)    
Max Wind Speed 21 mph    
Max Gust Speed 25 mph    
Visibility 10 miles    
Events Rain    
T = Trace of Precipitation, MM = Missing Value Source: NWS Daily Summary

Daily Weather History Graph

Daily Weather History Graph

Search for Another Location

Airport or City:

Astronomy

May. 11, 2019 Rise Set
Actual Time 5:43 AM EDT 8:02 PM EDT
Civil Twilight 5:13 AM EDT 8:33 PM EDT
Nautical Twilight 4:35 AM EDT 9:11 PM EDT
Astronomical Twilight 3:53 AM EDT 9:53 PM EDT
Moon 11:49 AM EDT (5/11) 1:41 AM EDT (5/11)
Length of Visible Light 15h 20m
Length of Day
14h 18m
Waxing Crescent, 46% of the Moon is Illuminated
May 11
Waxing Crescent
May 11
First Quarter
May 18
Full
May 26
Last Quarter
Jun 3
New

Hourly Weather History & Observations

Time (EDT) Temp. Dew Point Humidity Pressure Visibility Wind Dir Wind Speed Gust Speed Precip Events Conditions
12:51 AM 69.1 °F 64.0 °F 84% 29.93 in 10.0 mi West 5.8 mph - N/A   Overcast
1:15 AM 69.1 °F 64.0 °F 84% 29.93 in 10.0 mi WNW 4.6 mph - N/A   Overcast
1:51 AM 66.0 °F 57.9 °F 75% 29.94 in 10.0 mi North 13.8 mph - 0.00 in Rain Light Rain
2:51 AM 62.1 °F 57.0 °F 84% 29.96 in 7.0 mi NNW 13.8 mph - 0.02 in Rain Light Rain
3:51 AM 60.1 °F 55.0 °F 83% 29.96 in 10.0 mi NNW 12.7 mph - 0.01 in   Overcast
4:51 AM 59.0 °F 52.0 °F 78% 29.96 in 10.0 mi NNW 12.7 mph 19.6 mph 0.00 in   Mostly Cloudy
5:51 AM 57.0 °F 48.0 °F 72% 29.99 in 10.0 mi NNW 16.1 mph - N/A   Mostly Cloudy
6:51 AM 57.0 °F 46.9 °F 69% 30.01 in 10.0 mi NNW 11.5 mph - N/A   Mostly Cloudy
7:51 AM 57.9 °F 45.0 °F 62% 30.03 in 10.0 mi NNW 15.0 mph 24.2 mph N/A   Mostly Cloudy
8:51 AM 57.0 °F 43.0 °F 59% 30.05 in 10.0 mi North 15.0 mph - N/A   Mostly Cloudy
9:51 AM 61.0 °F 42.1 °F 50% 30.05 in 10.0 mi NNW 13.8 mph 24.2 mph N/A   Mostly Cloudy
10:51 AM 62.1 °F 39.9 °F 44% 30.04 in 10.0 mi NW 12.7 mph - N/A   Scattered Clouds
11:51 AM 63.0 °F 41.0 °F 45% 30.04 in 10.0 mi North 9.2 mph - N/A   Scattered Clouds
12:51 PM 66.0 °F 39.9 °F 38% 30.03 in 10.0 mi NNW 11.5 mph - N/A   Partly Cloudy
1:51 PM 68.0 °F 39.0 °F 35% 30.02 in 10.0 mi NNW 8.1 mph - N/A   Partly Cloudy
2:51 PM 70.0 °F 37.9 °F 31% 30.00 in 10.0 mi NNW 4.6 mph - N/A   Scattered Clouds
3:51 PM 71.1 °F 37.0 °F 29% 29.99 in 10.0 mi West 10.4 mph 16.1 mph N/A   Mostly Cloudy
4:51 PM 71.1 °F 36.0 °F 28% 29.96 in 10.0 mi Variable 3.5 mph - N/A   Mostly Cloudy
5:51 PM 69.1 °F 36.0 °F 30% 29.97 in 10.0 mi West 5.8 mph - N/A   Mostly Cloudy
6:51 PM 68.0 °F 35.1 °F 30% 29.97 in 10.0 mi West 6.9 mph - 0.00 in Rain Light Rain
7:51 PM 68.0 °F 36.0 °F 31% 29.97 in 10.0 mi West 5.8 mph - 0.00 in Rain Light Rain
8:51 PM 66.9 °F 39.0 °F 36% 29.98 in 10.0 mi SE 3.5 mph - 0.00 in   Overcast
9:51 PM 63.0 °F 50.0 °F 63% 29.99 in 10.0 mi SE 5.8 mph - 0.00 in   Overcast
10:51 PM 61.0 °F 50.0 °F 67% 29.99 in 10.0 mi SE 4.6 mph - 0.00 in   Overcast
11:51 PM 60.1 °F 50.0 °F 69% 29.98 in 10.0 mi Calm Calm - N/A   Overcast